Wind_Speed
15 15 15 16 16 16 17 17 17 17 17 17 18 19 19 20 21 22 22 23 23 23 23 23 23 23 24 25 25 26 26 26 27 28 29 29 30 30 31 33 35 37 37 36 35 34 35 36 39 42 44 45 47 49 50 49 46 43 43 47 48 48 46 41 37 36 35 34 33
16 16 16 16 17 17 17 17 17 17 17 18 18 19 19 20 21 22 23 23 24 24 24 24 24 24 24 26 27 27 27 27 27 27 28 29 29 29 30 31 33 36 37 37 37 35 35 35 37 40 42 43 45 47 49 50 48 45 43 43 44 47 48 43 38 35 33 33 33
17 17 17 17 17 18 18 18 19 19 19 19 19 19 19 20 20 21 22 23 24 24 24 24 25 25 26 27 27 28 27 27 27 27 28 28 29 29 31 32 34 36 38 39 38 37 36 35 36 38 39 40 41 42 44 46 47 46 45 44 45 46 47 45 38 34 32 30 32
18 18 17 18 18 19 19 20 20 20 20 20 19 20 20 20 20 21 22 23 24 24 25 25 26 27 28 29 29 29 29 29 29 29 29 29 29 30 31 34 36 38 40 41 40 39 38 37 36 37 38 39 40 40 41 42 44 45 45 44 42 42 43 43 39 34 30 29 31
19 19 19 19 20 20 20 20 20 21 20 20 20 20 20 20 21 21 22 23 24 24 25 26 28 29 30 31 32 32 32 32 31 30 30 30 31 31 32 33 36 38 40 41 42 42 41 40 37 36 37 38 39 40 41 41 42 42 42 41 38 37 39 43 41 36 31 29 31
21 21 21 22 22 22 22 21 21 21 21 20 20 21 21 21 22 22 23 24 25 25 26 27 29 30 30 31 32 33 33 33 32 31 31 31 32 32 32 32 33 35 37 39 40 41 42 41 38 37 37 38 39 40 40 39 39 39 38 37 35 34 36 40 39 35 31 29 29
21 22 23 23 23 23 23 22 22 22 21 21 21 21 22 22 23 24 25 25 25 26 26 26 27 28 29 30 31 32 33 33 33 33 32 32 32 33 33 33 33 33 34 35 37 39 40 40 37 36 36 37 38 38 37 37 37 37 36 36 33 31 32 35 36 35 33 31 30
22 23 23 24 24 24 24 23 23 23 22 22 22 22 22 23 24 24 25 25 25 25 25 25 26 28 29 30 32 33 34 35 35 34 34 33 34 34 34 34 34 33 33 34 35 37 38 37 35 33 33 34 36 36 36 35 33 33 33 33 32 30 29 30 33 35 36 35 33
23 23 24 24 24 24 24 24 23 24 24 24 24 24 24 23 24 24 24 23 24 25 25 26 27 28 29 31 32 33 34 34 35 35 35 34 35 36 35 34 34 33 32 32 33 35 36 36 34 32 31 32 33 34 33 32 30 29 28 28 27 28 29 30 33 36 37 37 36
24 24 25 25 25 24 24 24 24 25 25 25 25 25 25 24 24 23 23 23 24 25 26 27 28 29 29 30 31 31 32 33 33 34 35 35 36 37 37 36 34 33 33 32 33 34 35 35 34 32 31 30 31 32 32 30 28 26 25 24 23 25 27 30 32 35 37 38 37
26 26 26 25 25 25 24 25 25 25 25 26 26 26 25 25 24 23 23 24 25 26 27 28 28 28 28 29 29 30 31 31 32 33 34 34 36 37 37 36 35 34 34 34 33 34 34 34 33 31 29 29 29 30 30 29 27 25 22 21 21 23 26 29 32 34 35 37 37
27 27 27 26 26 26 25 26 25 25 25 26 26 26 26 25 25 25 25 25 25 26 27 28 28 28 28 28 28 28 29 31 32 34 35 35 37 38 38 37 36 35 35 35 34 33 32 33 32 30 28 28 28 28 29 28 27 24 22 21 21 23 26 28 31 33 34 36 37
28 28 28 27 27 26 26 26 26 25 26 26 27 27 27 27 26 26 26 26 26 26 26 27 27 27 27 27 27 28 29 31 34 35 36 37 38 39 39 38 36 35 34 34 34 33 32 32 31 30 29 28 28 28 28 28 27 25 23 22 23 25 27 28 30 32 34 35 35
29 29 28 28 27 27 27 26 26 26 26 27 28 29 29 29 28 27 26 26 25 25 25 25 26 27 28 29 29 31 32 33 35 36 38 39 40 40 40 40 38 36 35 34 33 33 32 32 31 30 29 28 28 28 29 29 28 27 25 24 26 27 28 29 30 32 34 35 34
29 29 28 28 28 27 27 27 26 26 27 28 29 30 31 31 30 28 27 26 25 25 25 25 27 28 30 31 32 33 34 34 35 36 37 39 39 40 41 42 41 40 38 36 34 32 32 32 32 30 29 28 28 28 29 29 29 28 27 28 29 30 31 31 31 32 34 35 35
29 29 28 28 28 27 27 27 27 27 28 29 30 31 32 32 31 29 28 27 27 26 27 28 29 31 32 33 33 34 34 34 35 35 35 36 38 39 41 43 43 42 41 38 35 33 32 32 32 31 30 29 28 28 29 30 29 29 30 30 32 33 33 33 33 33 34 35 35
29 29 28 28 28 27 27 27 27 28 29 30 31 32 32 32 31 30 28 28 28 29 30 31 32 33 33 33 34 34 35 36 36 35 34 34 36 37 40 42 44 44 42 39 36 34 33 32 32 32 31 30 29 29 29 30 30 30 31 32 33 35 36 36 36 35 35 36 36
29 29 28 28 27 27 27 27 28 29 31 32 33 33 33 33 32 31 30 30 31 31 33 34 34 34 34 34 34 35 36 37 38 37 36 36 36 37 39 42 44 44 43 40 37 34 32 32 32 32 31 30 29 29 29 29 30 31 32 32 34 36 37 38 38 38 37 37 37
30 29 28 28 27 27 27 28 29 30 32 33 34 34 34 34 34 34 33 33 33 34 34 35 35 35 35 35 35 36 36 37 38 39 39 38 38 38 40 41 43 44 43 41 37 34 32 32 32 32 31 29 28 28 29 29 30 31 32 33 34 36 37 38 38 39 39 39 38
30 29 28 27 27 27 28 28 29 31 33 34 35 36 37 37 36 36 36 36 36 35 35 34 34 34 35 35 35 35 36 37 38 38 39 39 39 39 40 41 42 43 43 41 38 35 32 31 32 32 31 29 28 28 29 29 29 30 31 32 33 35 36 37 38 38 38 39 38
30 29 28 27 27 27 28 29 31 32 34 36 37 38 39 38 38 38 37 37 36 36 36 36 35 34 34 35 35 35 36 37 37 38 39 40 40 40 40 41 41 42 42 41 39 36 33 31 31 31 31 29 29 29 29 29 29 30 30 31 32 34 35 35 36 36 37 37 37
29 28 27 26 26 27 28 30 32 34 35 37 38 39 39 39 38 38 37 37 36 36 36 36 35 34 34 35 36 37 37 38 38 39 40 41 42 42 41 40 40 41 42 43 41 37 34 33 32 32 31 31 30 30 29 29 29 29 29 29 30 31 32 33 34 34 35 36 36
28 27 27 26 26 27 29 31 33 35 37 38 39 39 39 39 38 38 37 36 36 36 36 35 34 34 35 36 37 38 38 39 40 41 42 42 42 42 41 41 41 41 42 43 42 39 35 34 34 33 32 31 30 30 29 29 29 28 28 28 28 29 30 31 32 33 34 34 34
27 27 27 28 29 30 31 33 34 36 37 38 38 39 38 38 38 38 37 36 35 35 34 34 34 35 36 37 39 40 40 40 41 42 43 42 42 41 40 40 40 40 41 43 43 40 36 34 33 33 32 31 30 29 29 29 29 29 29 29 29 29 29 29 31 32 33 33 33
28 28 29 30 31 32 33 34 34 35 36 37 38 38 38 38 38 38 37 36 35 34 34 34 35 36 37 38 39 40 41 40 41 43 43 42 41 40 40 39 39 39 40 41 43 41 37 35 34 32 32 31 30 29 29 29 30 30 31 31 30 29 29 29 30 31 31 32 32
29 30 31 31 33 34 34 35 35 36 37 37 38 38 38 39 39 38 37 36 35 34 34 34 35 36 37 39 40 41 41 41 41 43 43 43 42 41 41 40 40 39 39 39 39 39 37 37 35 34 33 32 31 30 30 30 31 31 32 32 32 31 30 29 29 29 30 30 30
31 32 32 32 33 34 35 36 36 37 37 37 37 38 38 39 38 37 36 35 35 34 34 34 35 36 36 38 40 41 41 41 42 43 43 42 42 42 42 41 40 39 38 37 37 37 37 37 36 36 35 34 33 32 32 31 32 32 33 33 33 32 32 31 30 29 29 29 30
32 33 33 33 34 35 36 36 36 37 37 36 36 37 37 38 36 35 35 35 34 34 33 34 35 35 35 35 38 40 41 41 41 41 41 40 41 42 42 41 40 38 37 35 35 35 37 38 38 38 37 35 34 33 34 33 33 33 33 32 32 32 32 32 31 31 30 30 30
33 34 34 35 36 37 37 36 36 35 35 35 35 35 35 35 35 34 34 35 35 34 34 35 34 34 35 37 38 39 40 41 41 40 40 40 40 41 40 39 38 36 35 34 33 35 37 39 39 39 38 37 35 35 35 35 34 34 33 32 32 32 32 32 32 31 31 31 32
34 35 35 36 37 37 37 36 35 34 34 33 33 33 34 35 35 36 36 36 36 36 36 35 35 36 37 38 39 39 40 40 40 39 39 39 40 40 40 38 36 34 34 33 34 36 38 40 40 39 39 38 37 35 35 35 35 35 34 33 33 33 33 32 32 32 32 33 33
36 36 36 37 37 37 37 36 35 34 33 33 33 34 35 37 38 38 38 38 37 37 37 36 37 38 39 39 38 39 39 40 40 39 39 38 38 38 37 36 36 36 36 36 36 38 40 40 40 40 39 38 37 36 36 36 36 35 33 33 33 33 33 33 33 34 34 35 35
36 36 36 37 37 37 36 35 35 34 34 34 35 36 38 39 39 39 39 38 38 38 38 38 38 39 40 39 38 37 38 39 40 39 38 37 37 36 35 35 37 38 37 36 38 39 40 40 40 40 39 37 36 36 36 35 34 33 32 32 32 33 33 33 34 35 36 37 37
36 36 36 36 36 36 36 35 35 35 35 36 37 38 39 40 40 39 39 38 38 38 39 39 39 39 39 39 38 38 38 38 39 38 38 37 36 35 36 37 39 37 35 37 39 40 40 40 41 40 38 36 35 35 35 34 32 31 30 31 31 32 33 34 35 36 37 37 37
36 36 35 35 35 36 36 36 35 35 36 37 38 38 39 39 39 39 39 38 37 37 37 37 38 37 37 37 37 37 38 38 38 38 37 36 34 35 36 35 32 30 32 37 39 41 41 42 41 40 38 36 35 35 34 33 31 30 30 30 30 31 33 34 36 37 37 36 36
35 34 34 34 35 35 36 36 36 36 36 36 36 37 38 37 38 38 38 38 37 37 36 36 36 35 35 36 37 37 38 38 39 38 37 35 34 33 30 26 25 29 34 38 40 42 42 43 42 40 38 37 36 36 35 33 31 30 30 30 30 30 32 33 35 36 36 36 36
34 34 34 34 34 35 35 35 36 35 35 35 35 36 37 37 37 37 37 37 37 37 37 36 34 34 35 34 35 36 36 36 37 36 35 33 32 28 24 24 28 33 38 41 43 43 44 44 42 41 39 38 37 36 35 33 32 31 31 30 30 31 32 33 34 34 34 34 34
34 34 33 33 33 34 35 35 35 35 35 35 35 36 36 36 37 38 37 36 36 36 36 35 34 33 34 33 34 35 36 35 34 33 33 31 28 23 25 28 32 36 41 44 44 45 45 44 42 41 40 38 37 36 34 32 31 31 31 31 30 31 31 32 32 32 32 32 33
35 34 34 34 34 34 35 36 35 34 34 35 36 37 37 38 38 38 37 35 35 34 34 34 33 33 33 34 34 35 36 35 32 31 29 27 23 25 29 31 34 38 43 45 45 45 45 44 43 42 41 39 38 36 33 31 30 30 30 30 29 29 29 29 29 29 29 30 31
35 35 35 35 35 35 36 36 35 35 35 36 37 37 38 38 38 37 36 34 33 33 33 33 33 33 34 34 34 35 34 33 31 29 25 22 25 31 33 32 35 38 42 44 45 45 45 44 44 43 42 40 37 35 33 31 30 29 28 28 27 27 26 26 26 27 27 29 30
35 35 35 36 36 36 36 35 35 36 36 36 37 37 38 38 37 36 34 32 32 32 32 33 34 34 33 33 33 33 32 30 28 24 19 23 30 33 33 33 35 38 41 43 45 46 45 44 44 43 41 39 36 34 32 31 29 28 27 26 25 24 24 24 25 26 27 28 29
35 35 36 37 38 37 36 35 36 37 37 37 37 37 37 36 34 33 31 30 31 31 31 31 33 34 33 32 31 29 27 25 21 16 20 28 32 32 32 33 35 37 39 42 44 45 45 43 42 41 39 37 35 33 32 30 29 27 26 25 25 25 24 25 25 26 27 28 28
Wind_Direction
303 303 305 308 309 309 306 303 301 299 298 297 297 296 296 295 294 293 293 292 291 290 289 287 286 287 288 290 291 292 293 293 294 295 297 299 299 299 298 296 296 296 297 298 298 298 298 296 294 290 284 276 267 259 254 250 248 242 233 228 229 234 237 235 234 233 232 228 221
301 301 304 306 308 308 307 305 304 303 302 301 300 299 298 296 294 293 293 292 292 291 290 288 286 285 286 288 289 290 289 289 290 291 292 294 296 297 297 297 296 296 297 297 297 297 296 296 296 294 291 285 277 268 261 256 254 252 247 240 235 236 239 239 236 232 228 225 220
299 300 302 304 306 307 306 306 305 305 304 302 301 300 299 297 295 294 294 293 292 291 291 289 288 288 288 289 289 288 287 286 286 287 288 289 290 291 292 293 294 294 295 296 297 296 295 295 295 294 293 290 284 276 268 262 259 257 255 251 245 241 239 240 236 230 224 220 216
300 301 302 303 304 304 304 304 304 304 303 302 301 300 299 297 296 295 295 295 295 294 293 292 291 291 291 292 291 290 288 285 285 285 286 287 287 287 287 288 289 290 292 294 296 296 295 294 293 292 291 290 286 281 274 268 263 260 258 255 251 244 239 238 235 228 219 215 211
302 303 304 305 304 304 302 302 302 302 302 300 300 299 298 297 297 296 297 298 298 297 295 294 294 293 293 294 294 293 291 288 286 285 285 286 286 286 286 285 285 286 288 290 293 294 294 293 291 290 289 288 286 282 278 272 267 263 259 257 254 247 240 238 235 227 216 210 207
303 304 305 306 305 304 302 301 300 300 300 299 298 297 297 297 297 297 298 299 298 297 296 296 295 295 295 295 294 294 293 291 288 286 285 285 286 286 286 285 284 284 285 287 290 291 292 290 288 287 287 287 285 283 280 275 270 266 261 257 253 247 240 235 229 220 209 202 198
303 304 304 305 304 303 302 300 299 299 298 297 296 295 295 296 296 297 297 297 297 297 297 297 297 297 297 296 296 295 294 293 290 288 286 285 285 285 285 284 283 283 283 285 286 288 288 287 284 282 283 284 283 282 279 275 271 266 260 254 249 241 233 226 221 212 201 192 188
302 302 302 302 302 301 300 299 299 298 298 297 295 294 294 294 295 296 297 297 298 298 298 297 298 298 298 298 297 297 296 295 293 291 288 286 285 284 284 284 283 282 282 282 283 284 284 283 280 278 279 280 280 279 277 273 269 264 257 250 243 234 222 212 207 200 191 183 180
302 301 301 300 299 298 297 297 297 298 298 297 296 294 293 293 294 295 296 297 298 299 298 298 299 299 298 297 297 297 296 295 294 292 289 287 285 285 285 284 282 281 280 280 281 282 281 279 276 275 275 276 276 275 273 270 266 261 254 245 234 224 215 203 194 186 182 178 175
303 301 300 298 297 296 295 295 296 297 297 297 296 294 293 293 293 294 295 297 299 300 300 300 300 299 298 297 297 296 295 295 294 293 291 289 287 285 284 283 281 279 278 279 280 280 279 276 272 271 271 272 273 272 270 266 262 257 250 239 225 212 202 197 188 182 179 176 173
303 301 298 297 295 294 294 295 295 296 297 297 296 295 294 293 293 294 295 297 299 299 300 300 300 300 299 298 297 296 296 295 295 295 295 294 291 288 285 282 279 278 277 277 277 277 275 272 268 266 266 268 270 270 268 264 259 253 245 232 217 202 193 188 184 181 178 175 173
303 300 298 296 295 294 294 295 295 296 296 297 296 296 295 294 293 294 295 296 297 298 299 300 300 299 298 297 297 297 296 296 296 297 298 298 296 293 288 283 279 276 275 274 273 272 271 268 265 262 262 265 267 267 265 262 257 249 237 224 208 195 187 182 180 179 177 175 171
302 300 299 297 296 295 295 295 296 296 297 297 297 297 296 295 294 294 294 295 295 296 297 298 299 298 298 297 297 297 297 297 297 297 298 298 297 295 291 286 280 276 273 271 270 269 267 265 262 260 260 262 263 263 262 259 254 244 230 214 200 191 185 181 177 175 174 173 170
302 301 299 298 297 297 297 297 297 297 298 298 299 298 298 297 296 294 293 292 292 293 294 296 297 297 297 297 297 297 298 298 297 297 296 295 294 294 292 288 283 278 273 270 268 267 265 263 260 258 257 258 259 259 258 255 249 240 226 209 196 191 187 183 178 174 172 171 169
302 301 299 299 299 298 298 298 298 299 299 300 300 300 300 299 297 295 292 290 290 290 292 293 295 295 296 296 297 297 298 298 297 296 295 293 293 292 292 289 285 280 275 271 267 264 262 261 259 257 256 256 255 255 254 251 245 236 225 212 202 195 190 185 181 177 174 172 170
301 300 299 299 299 299 299 299 300 301 301 301 302 302 301 299 297 294 292 289 289 289 290 291 292 294 295 295 296 296 297 296 295 294 293 292 291 290 290 289 286 281 276 272 266 262 259 259 259 258 256 254 253 252 251 248 242 234 225 215 207 200 194 189 185 182 179 176 172
300 299 299 299 299 299 300 300 301 302 303 303 303 303 301 299 297 294 292 289 289 289 289 290 291 292 292 293 294 294 295 294 294 292 291 290 289 288 288 288 287 283 278 273 266 260 257 257 257 257 256 254 251 249 248 245 239 232 224 216 209 203 198 193 190 186 183 180 176
299 298 298 298 299 300 300 301 302 303 304 304 304 303 301 299 297 295 292 290 289 289 289 289 289 289 288 289 290 291 292 292 292 291 290 289 288 287 286 285 285 284 280 274 267 260 256 255 255 254 253 251 249 247 244 241 236 230 222 215 209 204 199 196 192 189 186 183 179
298 298 298 298 299 300 302 302 303 304 304 304 303 302 300 299 297 295 292 290 289 289 289 288 287 285 285 285 287 288 289 289 289 289 288 287 286 286 284 283 283 283 280 275 268 261 257 254 252 250 247 245 244 242 239 235 230 226 220 214 207 202 198 195 192 190 187 184 180
298 298 299 299 300 302 303 303 304 304 303 302 302 301 300 298 296 294 293 291 289 288 287 285 282 281 281 282 283 284 286 287 286 286 285 284 284 284 283 282 281 281 279 275 269 262 256 253 249 245 241 238 236 235 232 228 224 221 216 211 206 201 197 193 190 187 185 182 180
298 298 299 300 301 303 303 303 303 303 302 301 300 300 299 298 296 294 292 290 288 287 285 282 279 277 278 280 282 282 283 284 284 283 283 282 282 281 281 280 280 279 277 274 268 261 253 247 242 238 235 233 231 229 225 221 218 215 211 207 204 199 195 190 186 183 181 179 177
298 299 300 301 302 303 303 303 303 302 301 300 299 299 298 297 295 293 291 289 287 285 283 281 279 277 277 280 281 282 282 283 282 281 281 280 280 279 278 278 277 276 275 272 267 259 250 241 234 231 229 228 226 222 218 214 211 207 204 200 197 194 190 186 182 179 176 175 172
299 300 301 302 302 302 302 302 302 301 300 299 299 298 297 296 294 292 291 289 286 284 282 281 280 279 280 281 282 282 282 282 281 281 279 278 275 274 274 274 274 273 271 269 264 257 247 236 228 224 222 220 218 214 211 207 203 197 192 189 186 184 182 181 177 173 171 170 167
300 301 302 302 302 302 302 301 301 300 299 298 298 297 296 294 294 293 291 289 286 284 283 282 282 282 282 283 283 283 282 281 280 280 279 277 273 271 270 270 270 268 266 265 261 254 242 229 220 216 215 213 209 205 202 199 194 189 184 179 176 174 172 172 168 165 163 163 161
300 301 301 301 301 301 301 300 299 298 297 297 296 296 295 294 294 293 291 289 287 285 284 284 283 284 284 284 284 283 282 280 279 279 279 277 273 270 268 267 266 264 262 261 258 251 238 223 214 210 208 206 201 196 193 191 187 182 178 175 170 166 163 162 162 160 158 156 156
299 299 300 300 301 301 300 299 298 297 296 296 295 295 294 294 294 293 291 289 287 286 286 286 285 285 285 285 285 284 282 280 278 278 277 276 273 270 267 265 263 262 259 257 254 245 233 220 212 208 205 200 194 188 184 182 181 178 175 173 168 163 159 156 155 154 152 151 151
298 299 300 300 301 301 300 299 298 297 296 295 295 294 294 295 294 293 290 288 287 286 286 286 286 285 285 284 284 283 281 279 278 277 276 274 272 270 268 265 262 260 257 254 249 239 228 218 211 207 202 197 190 184 179 176 175 173 171 168 166 163 158 153 150 148 147 146 146
300 301 301 302 302 301 300 298 297 296 296 295 294 294 294 294 293 291 290 288 288 288 287 287 286 286 285 284 283 282 280 279 278 276 275 272 271 269 266 264 260 256 254 250 242 231 221 214 209 204 198 192 185 180 176 173 170 168 166 163 163 160 157 153 150 147 144 142 141
303 303 303 304 303 302 300 298 297 296 295 295 294 294 294 293 292 291 290 290 289 289 289 289 287 286 285 284 282 281 281 279 277 275 273 272 271 269 265 259 254 250 247 242 233 223 213 208 204 199 193 187 180 176 173 170 168 165 163 161 160 157 155 153 150 147 143 140 139
305 305 305 304 303 302 300 298 297 297 296 295 295 294 294 293 293 292 292 292 291 291 290 289 288 287 285 284 282 281 281 279 276 273 272 271 269 267 263 256 248 243 240 236 227 216 207 202 197 191 186 181 176 171 168 167 165 162 160 159 157 156 153 151 149 146 143 141 139
306 306 305 305 303 302 300 299 298 297 297 296 296 295 295 295 295 294 294 294 293 291 290 289 288 287 285 284 282 280 279 278 276 274 271 269 266 264 260 253 245 241 239 234 222 210 201 195 189 184 179 175 170 167 165 164 162 160 158 156 154 153 152 150 148 147 144 142 140
307 307 306 305 304 302 301 300 299 299 298 298 297 297 296 296 295 295 294 294 293 292 292 290 289 288 286 285 282 280 278 277 276 274 271 268 266 263 258 251 245 242 237 226 212 201 193 186 181 176 172 168 164 162 160 159 157 155 154 153 151 151 150 148 147 146 145 143 142
308 307 306 305 304 303 303 302 301 300 300 299 298 298 297 297 296 295 295 294 293 293 292 291 290 288 286 284 282 280 279 277 276 273 270 267 265 262 256 249 245 238 225 210 197 187 180 175 171 169 166 162 157 154 153 153 151 149 149 149 149 149 148 148 146 145 144 144 144
309 308 307 306 305 305 304 304 303 302 301 300 299 298 297 297 295 295 295 294 293 292 291 290 289 287 285 283 282 281 280 279 277 274 270 267 264 260 253 244 233 217 201 189 181 174 168 165 163 161 158 154 150 147 146 146 144 143 144 144 146 146 147 146 146 145 144 144 143
309 309 308 307 306 306 305 305 304 303 302 300 299 298 297 296 294 294 294 294 293 291 290 288 287 286 285 284 283 283 282 280 278 275 272 267 263 255 243 222 197 183 177 173 168 164 161 160 157 154 150 146 143 141 141 140 139 139 140 141 142 143 144 144 144 144 143 143 142
310 310 309 308 307 306 306 305 304 303 301 299 297 297 296 295 294 294 294 294 293 292 290 288 286 286 285 284 285 284 283 279 278 276 272 267 259 243 216 183 168 166 166 164 161 159 158 156 153 149 145 141 138 137 137 137 136 136 136 137 138 140 141 142 142 142 142 142 142
310 310 310 309 308 307 306 305 304 301 299 298 297 296 296 295 295 295 295 294 293 291 289 288 286 286 285 285 285 286 284 281 277 274 271 264 247 215 181 162 159 161 162 161 158 156 154 152 149 145 141 138 136 135 134 133 133 133 134 134 136 137 138 140 140 140 140 141 142
311 311 311 310 308 306 305 304 302 299 297 297 297 297 297 297 296 296 295 294 291 289 287 287 286 286 285 286 287 287 285 282 276 272 266 253 220 183 161 154 156 159 160 159 156 154 151 148 145 142 140 137 135 134 132 131 131 131 132 133 134 135 137 138 139 140 141 143 144
312 312 311 310 307 305 304 302 300 298 298 298 298 298 297 297 297 295 294 292 289 287 286 286 286 286 287 287 288 288 285 282 277 271 256 226 186 164 155 153 155 157 158 156 155 153 150 147 144 141 139 137 135 134 132 131 130 130 130 132 133 135 136 137 138 139 140 143 145
312 312 311 309 307 305 303 301 300 299 299 298 297 297 296 295 294 293 291 289 288 287 287 287 287 288 288 288 288 287 284 281 276 263 231 187 163 156 154 154 155 156 156 154 152 151 148 145 143 141 139 136 135 133 132 131 130 130 131 133 134 135 136 136 136 136 138 140 144
312 311 310 308 307 305 303 301 300 300 300 298 297 296 295 293 291 289 288 287 287 287 287 288 289 290 290 289 288 285 281 275 263 230 183 159 152 152 154 154 154 154 154 153 150 148 144 142 140 139 138 137 135 134 133 132 132 133 134 135 136 135 133 133 133 134 136 139 142
Height
775 774 773 772 772 771 770 769 767 766 765 764 763 761 760 759 758 756 755 754 753 751 750 749 748 747 746 746 745 744 743 742 742 741 740 739 739 738 737 736 736 734 733 732 731 731 731 731 730 729 728 726 725 724 724 725 725 723 721 718 719 722 725 727 727 727 728 729 729
774 773 772 771 771 770 768 767 766 765 764 763 762 761 760 758 757 756 754 753 752 751 749 748 747 746 745 744 744 743 742 741 740 740 739 738 737 736 736 735 734 733 732 731 730 729 729 729 728 727 726 725 723 722 722 723 724 724 721 718 716 717 721 723 724 724 725 726 727
772 771 771 770 769 768 767 766 765 764 763 762 761 760 759 757 756 755 753 752 751 750 749 747 746 745 744 743 742 741 741 740 739 738 737 736 735 735 734 733 732 731 731 729 728 727 726 726 726 726 724 723 722 721 720 721 722 722 720 718 716 716 717 719 721 721 722 724 725
771 770 769 768 768 767 766 765 764 763 762 761 760 759 758 757 755 754 752 751 750 749 747 746 745 744 742 741 741 740 739 738 737 736 735 734 733 732 731 731 730 730 729 727 726 725 724 724 724 723 722 721 721 720 719 718 719 719 718 717 716 714 714 716 718 719 720 721 722
769 768 768 767 766 765 764 763 762 761 761 760 759 757 756 756 754 753 751 750 749 748 746 745 744 742 741 740 739 738 737 736 735 734 733 732 731 730 728 728 727 727 726 726 724 723 722 721 721 720 720 719 719 718 717 716 716 716 715 715 714 713 712 713 715 717 718 719 720
767 766 766 765 764 764 763 762 761 760 759 758 757 756 755 754 753 752 751 749 748 746 745 744 742 741 740 739 738 736 735 734 733 732 731 730 729 727 726 725 725 724 724 724 722 721 720 719 718 717 717 717 716 716 715 716 715 714 713 713 712 711 711 711 712 715 716 717 717
766 765 765 764 763 762 761 760 759 758 757 757 756 755 753 753 751 751 749 748 747 745 744 743 741 740 739 737 736 735 734 733 732 731 730 728 727 726 725 723 722 722 721 721 721 720 718 718 716 715 714 715 714 714 714 714 713 712 711 711 711 711 710 709 710 711 713 713 715
765 764 763 762 761 761 760 759 758 757 756 755 754 753 752 751 750 749 748 747 746 744 743 742 740 739 738 737 735 734 732 731 730 729 728 726 725 724 722 721 720 719 719 718 718 717 716 716 714 713 712 712 712 712 712 712 712 711 711 711 710 709 708 708 708 708 709 710 711
764 763 762 761 760 759 758 757 756 755 754 753 752 751 751 750 749 748 747 746 745 743 742 741 739 738 737 736 734 733 731 730 728 727 726 725 723 722 721 720 718 717 716 716 716 715 715 714 712 711 711 711 711 711 711 711 711 711 711 710 709 708 707 707 706 706 706 707 708
762 761 761 759 758 757 756 756 754 754 753 751 751 750 749 748 747 746 745 744 743 742 741 740 738 737 736 734 733 731 730 729 727 725 724 722 721 720 719 717 716 715 714 713 713 713 713 712 711 709 708 709 709 709 710 710 711 710 710 709 708 707 707 706 706 705 705 705 706
761 760 759 758 756 756 755 753 752 751 751 750 749 748 747 746 745 745 744 743 742 741 739 738 737 736 735 733 731 730 729 727 726 724 722 721 719 718 716 715 714 713 712 711 711 711 711 710 709 707 707 707 707 708 709 709 710 710 709 708 707 706 706 706 705 705 705 704 705
760 759 757 756 755 754 753 751 751 750 749 748 746 746 745 744 744 743 742 741 740 739 737 737 736 735 733 732 731 729 727 726 724 723 721 719 718 716 715 713 712 711 710 709 708 708 708 708 707 706 705 705 706 706 707 708 708 709 708 707 706 706 706 705 705 705 704 704 704
758 757 756 754 753 752 751 750 748 747 746 746 745 744 743 742 741 741 740 739 738 736 736 735 734 733 732 731 729 728 726 725 723 721 720 718 716 715 713 712 710 709 707 706 706 706 706 706 705 704 703 703 704 704 705 706 707 707 706 706 705 705 705 704 704 704 704 704 704
756 755 753 752 751 750 749 748 746 746 745 744 743 742 741 740 739 739 738 736 736 735 734 732 731 731 730 729 727 726 725 723 721 720 718 716 714 713 711 710 708 707 705 704 703 703 703 703 702 702 701 701 701 702 703 705 705 705 705 704 704 704 703 703 703 703 703 703 704
754 753 751 750 749 748 747 746 745 744 743 742 741 740 739 738 737 736 735 734 733 732 731 731 729 728 727 726 725 724 722 721 719 718 716 714 712 711 709 708 706 705 704 702 701 700 700 700 700 700 699 699 699 700 701 702 702 703 702 702 702 702 702 702 702 702 701 702 703
752 751 749 748 747 746 745 744 743 742 741 740 739 738 737 736 735 734 733 732 731 730 729 728 727 726 725 724 722 721 720 719 717 716 714 712 710 708 707 706 704 703 702 700 698 696 696 696 697 697 697 697 697 698 699 700 700 700 700 700 700 700 700 700 701 701 700 700 701
750 749 747 746 745 744 743 742 741 740 739 738 737 736 736 734 733 732 731 730 729 728 727 726 725 724 723 721 720 719 718 716 715 713 711 710 708 706 705 703 702 701 699 697 695 693 693 693 694 695 695 695 695 695 696 697 697 698 698 698 698 698 698 698 698 698 699 699 699
748 746 746 745 743 742 741 741 740 739 738 737 736 735 734 733 732 730 729 728 727 726 724 723 722 721 720 719 717 716 715 714 712 710 709 707 706 704 703 701 699 698 696 695 693 691 690 690 691 692 692 692 692 693 693 694 695 696 696 696 696 696 696 696 696 696 697 697 698
746 745 744 743 742 741 740 739 738 738 736 736 735 733 732 731 730 729 727 726 725 724 722 720 719 718 717 716 714 713 712 711 709 707 706 705 703 702 700 698 696 695 693 692 690 688 687 687 688 689 690 689 690 690 691 691 692 693 694 694 694 694 694 694 694 694 694 695 696
744 743 742 741 740 739 739 738 737 736 735 734 733 732 731 729 728 727 725 724 722 721 720 718 716 715 713 712 711 710 709 707 706 704 702 701 700 699 697 696 694 692 690 689 687 685 684 684 685 686 686 686 687 688 688 689 690 691 692 692 693 692 692 692 692 692 693 693 694
742 741 740 739 739 738 737 736 736 735 734 732 731 730 728 727 726 724 723 721 720 719 717 715 713 712 710 709 708 706 705 704 702 701 699 697 696 695 693 692 691 689 687 686 684 682 681 681 682 683 683 684 684 685 686 687 688 689 690 691 691 691 691 691 691 691 691 692 693
741 740 739 738 737 736 736 735 734 733 732 731 729 727 726 724 723 721 720 718 717 716 714 712 710 709 707 706 704 703 701 700 698 696 695 693 692 690 689 688 687 686 684 682 681 679 678 678 678 679 680 681 681 682 683 684 686 687 688 689 689 690 690 690 690 690 691 691 692
739 738 737 737 736 735 734 733 732 731 730 728 727 725 724 722 720 718 717 715 714 712 710 709 707 706 704 702 701 700 698 696 694 692 690 689 687 686 685 684 683 681 680 678 677 676 675 675 675 675 676 677 679 680 681 682 683 685 686 687 688 689 690 690 689 690 690 691 692
737 737 736 735 734 733 732 731 731 729 728 726 725 723 721 719 717 716 714 712 710 709 707 705 704 702 700 699 697 696 694 692 690 687 686 684 683 681 680 679 678 676 675 674 673 672 671 671 671 671 673 674 676 677 678 680 681 682 684 685 687 688 689 689 688 689 690 690 691
736 735 735 734 733 732 731 730 728 727 726 724 722 721 718 716 715 713 711 709 707 705 704 702 700 698 697 695 693 691 690 688 686 684 681 679 678 677 676 675 673 671 670 669 668 668 667 667 667 668 669 671 673 674 676 677 679 680 682 684 686 687 688 688 688 688 689 690 691
734 733 732 731 731 730 728 727 726 725 723 721 719 717 716 714 712 710 708 705 703 701 700 698 696 695 693 691 689 687 685 683 681 679 677 675 673 672 671 670 668 666 665 664 664 664 664 664 664 665 666 668 670 672 673 675 677 679 681 683 684 685 686 687 688 688 689 689 691
732 731 730 729 728 727 726 725 723 722 720 718 716 715 712 711 709 706 704 702 700 698 697 695 693 691 689 687 685 682 680 678 676 674 672 671 669 667 666 664 663 661 660 660 660 660 660 660 661 662 663 666 667 669 671 673 675 677 679 681 682 683 684 686 686 687 688 689 691
729 729 728 727 726 725 723 722 721 719 717 716 714 712 710 708 706 704 701 699 697 695 693 691 689 687 685 683 680 678 676 674 672 670 667 666 664 661 660 659 658 656 656 656 656 656 656 657 658 659 660 662 664 666 668 671 673 675 677 679 681 682 684 685 685 686 687 688 690
727 726 725 725 723 722 721 719 718 716 715 713 711 709 707 705 703 701 698 696 694 692 690 688 686 684 681 678 676 673 671 669 667 665 663 661 659 657 655 653 652 652 652 652 652 653 653 654 655 656 657 659 661 664 666 669 671 673 675 677 679 681 683 684 685 685 686 687 689
725 724 723 722 721 720 718 717 715 714 712 710 708 706 704 702 700 698 696 693 691 689 687 685 682 680 677 674 672 669 667 664 662 660 658 656 654 652 651 649 648 648 648 649 649 649 650 651 651 653 655 657 659 661 664 666 669 671 673 676 678 680 681 683 684 684 685 687 689
724 722 721 720 719 717 716 714 713 711 710 708 706 704 701 699 697 695 692 690 688 685 683 681 679 676 672 670 668 665 662 660 657 655 653 651 649 647 646 645 645 644 644 645 646 646 646 648 649 651 653 655 657 660 663 665 667 670 672 674 676 679 681 682 683 684 685 686 687
722 721 720 718 716 715 713 712 710 709 707 705 703 701 699 696 694 691 689 687 685 682 679 677 674 671 668 666 664 661 658 655 653 650 648 646 645 643 641 641 640 640 640 641 641 642 644 645 647 649 651 654 656 659 661 664 666 669 671 673 676 677 679 681 682 683 684 685 686
720 719 718 716 714 712 711 710 708 706 704 702 700 698 696 693 691 688 686 683 681 679 676 673 670 667 665 662 659 656 654 651 648 646 644 642 641 639 637 636 635 635 635 636 637 639 641 643 645 648 651 653 656 658 661 663 666 669 671 673 675 677 678 680 681 682 683 685 686
718 717 716 714 712 711 709 707 706 704 702 699 697 695 693 690 688 685 682 680 677 675 672 669 666 664 661 658 655 652 649 646 644 641 639 637 636 634 632 631 630 630 631 632 635 636 638 641 643 646 650 652 655 657 660 663 666 668 671 673 675 677 678 680 681 682 683 684 686
717 715 714 712 710 709 707 705 703 701 699 696 694 691 689 687 685 682 679 676 674 671 668 665 662 660 657 654 651 649 646 642 640 637 635 633 631 630 629 628 627 627 629 631 633 635 637 639 642 646 648 651 653 656 659 662 665 668 670 673 675 677 679 680 681 682 683 685 686
715 714 712 710 708 706 705 702 701 698 696 694 691 689 686 684 681 679 676 673 670 667 664 661 658 656 653 650 648 645 642 639 636 633 631 629 628 627 627 626 626 627 628 630 632 634 636 639 642 645 648 650 653 656 659 662 665 667 670 672 675 677 679 681 682 683 684 686 687
713 712 710 708 706 704 702 700 698 696 693 691 688 686 683 681 678 675 672 670 667 664 660 658 656 653 650 647 644 641 638 635 632 630 627 626 625 625 625 625 626 627 628 630 631 633 636 639 642 645 647 650 653 656 659 662 665 667 670 672 675 678 680 681 682 684 685 686 688
712 710 709 707 705 702 700 698 696 693 691 688 686 683 680 677 675 671 669 667 664 661 657 655 652 649 646 644 641 638 635 632 629 627 625 623 623 622 623 623 625 627 629 630 631 633 636 639 641 644 646 649 653 656 659 662 665 668 670 673 676 678 680 682 683 685 686 688 690
710 709 707 705 703 701 698 696 693 691 688 686 682 680 677 675 671 668 666 664 661 658 655 652 649 646 643 641 638 635 631 628 626 624 622 621 620 620 621 622 625 628 629 630 631 634 636 639 641 644 646 649 652 656 659 662 665 668 671 673 676 679 681 683 684 686 687 689 691
709 707 705 703 701 698 696 693 691 688 686 683 680 677 674 671 668 666 663 661 658 656 652 649 646 643 641 638 636 633 629 626 623 621 620 619 619 619 620 622 626 628 630 631 632 634 636 639 641 644 646 649 652 655 658 661 664 667 671 673 676 679 681 683 684 686 688 691 693
707 706 703 701 699 696 694 691 688 685 683 681 677 674 671 668 665 662 660 657 655 653 650 647 643 641 638 636 634 631 627 625 622 621 619 619 618 619 621 623 626 629 631 632 633 635 637 639 641 644 646 649 652 655 658 661 664 667 670 673 676 678 680 682 684 687 689 692 694